Ahoskie, NC

3:02 AM EDT on May 01, 2017 (GMT -0400)
Tri County

Weather History for KASJ - June, 2014

Change the Weather History Date:

Wednesday, June 4, 2014

  Actual Average (KEMV) Record (KEMV)
Temperature  
Mean Temperature 76 °F -  
Max Temperature 88 °F 82 °F 94 °F (1987)
Min Temperature 63 °F 56 °F 41 °F (1988)
Cooling Degree Days 10    
Growing Degree Days 26 (Base 50)    
Moisture  
Dew Point 65 °F    
Average Humidity 73    
Maximum Humidity 96    
Minimum Humidity 40    
Precipitation  
Precipitation 0.00 in - - ()
Sea Level Pressure  
Sea Level Pressure 29.85 in    
Wind  
Wind Speed 0 mph (WNW)    
Max Wind Speed 5 mph    
Max Gust Speed -    
Visibility 9 miles    
Events      
Averages and records for this station are not official NWS values.
T = Trace of Precipitation, MM = Missing Value Source: NWS Daily Summary

Daily Weather History Graph

Daily Weather History Graph

Search for Another Location

Airport or City:

Trip Planner

Search our weather history database for the weather conditions in past years. The results will help you decide how hot, cold, wet, or windy it might be!

Date:

Astronomy

Jun. 04, 2014 Rise Set
Actual Time 5:51 AM EDT 8:22 PM EDT
Civil Twilight 5:21 AM EDT 8:52 PM EDT
Nautical Twilight 4:44 AM EDT 9:29 PM EDT
Astronomical Twilight 4:03 AM EDT 10:11 PM EDT
Moon 12:01 PM EDT (6/4) 12:27 AM EDT (6/4)
Length of Visible Light 15h 31m
Length of Day
14h 31m
Waxing Crescent, 39% of the Moon is Illuminated
Jun 4
Waxing Crescent
Jun 5
First Quarter
Jun 13
Full
Jun 19
Last Quarter
Jun 27
New

Hourly Weather History & Observations

Time (EDT) Temp. Heat Index Dew Point Humidity Pressure Visibility Wind Dir Wind Speed Gust Speed Precip Events Conditions
12:15 AM 67.6 °F - 64.4 °F 89% 29.91 in 10.0 mi Calm Calm - N/A   Clear
12:35 AM 67.1 °F - 64.4 °F 91% 29.91 in 10.0 mi Calm Calm - N/A   Clear
12:55 AM 66.4 °F - 63.7 °F 91% 29.91 in 10.0 mi Calm Calm - N/A   Clear
1:15 AM 66.2 °F - 63.7 °F 92% 29.90 in 10.0 mi Calm Calm - N/A   Clear
1:35 AM 65.7 °F - 63.5 °F 93% 29.90 in 10.0 mi Calm Calm - N/A   Clear
1:55 AM 65.5 °F - 63.5 °F 93% 29.89 in 10.0 mi Calm Calm - N/A   Clear
2:15 AM 65.3 °F - 63.1 °F 93% 29.89 in 7.0 mi Calm Calm - N/A   Clear
2:35 AM 64.4 °F - 62.4 °F 93% 29.88 in 7.0 mi Calm Calm - N/A   Clear
2:55 AM 64.9 °F - 63.5 °F 95% 29.88 in 7.0 mi Calm Calm - N/A   Clear
3:15 AM 64.8 °F - 63.3 °F 95% 29.88 in 5.0 mi Calm Calm - N/A   Clear
3:35 AM 64.4 °F - 62.8 °F 94% 29.88 in 5.0 mi Calm Calm - N/A   Clear
3:55 AM 63.9 °F - 62.4 °F 95% 29.87 in 4.0 mi Calm Calm - N/A   Clear
4:15 AM 64.4 °F - 63.0 °F 95% 29.87 in 5.0 mi Calm Calm - N/A   Clear
4:35 AM 64.8 °F - 63.5 °F 96% 29.88 in 4.0 mi Calm Calm - N/A   Clear
4:55 AM 64.0 °F - 62.6 °F 95% 29.87 in 5.0 mi Calm Calm - N/A   Clear
5:15 AM 64.8 °F - 63.5 °F 96% 29.88 in 5.0 mi Calm Calm - N/A   Clear
5:35 AM 64.4 °F - 63.0 °F 95% 29.88 in 3.0 mi Calm Calm - N/A   Clear
5:55 AM 63.7 °F - 62.4 °F 96% 29.89 in 5.0 mi Calm Calm - N/A   Clear
6:15 AM 64.8 °F - 63.5 °F 96% 29.89 in 3.0 mi Calm Calm - N/A   Clear
6:35 AM 65.8 °F - 64.4 °F 95% 29.88 in 5.0 mi Calm Calm - N/A   Clear
6:55 AM 67.1 °F - 65.3 °F 94% 29.89 in 5.0 mi Calm Calm - N/A   Clear
7:15 AM 68.2 °F - 65.8 °F 92% 29.89 in 7.0 mi Calm Calm - N/A   Clear
7:35 AM 69.6 °F - 66.6 °F 90% 29.89 in 10.0 mi Calm Calm - N/A   Clear
7:55 AM 71.1 °F - 66.6 °F 86% 29.89 in 10.0 mi Calm Calm - N/A   Clear
8:15 AM 73.0 °F - 66.9 °F 81% 29.89 in 10.0 mi Calm Calm - N/A   Clear
8:35 AM 74.5 °F - 66.6 °F 76% 29.89 in 10.0 mi Calm Calm - N/A   Clear
8:55 AM 74.8 °F - 66.7 °F 76% 29.90 in 10.0 mi Calm Calm - N/A   Clear
9:15 AM 76.1 °F - 66.6 °F 72% 29.90 in 10.0 mi Calm Calm - N/A   Clear
9:35 AM 78.1 °F - 66.7 °F 68% 29.90 in 10.0 mi Calm Calm - N/A   Clear
9:55 AM 79.2 °F - 65.8 °F 64% 29.89 in 10.0 mi Calm Calm - N/A   Clear
10:15 AM 80.1 °F 82.1 °F 65.8 °F 62% 29.89 in 10.0 mi WNW 4.6 mph - N/A   Clear
10:35 AM 81.3 °F 83.5 °F 66.2 °F 60% 29.89 in 10.0 mi Calm Calm - N/A   Clear
10:55 AM 82.4 °F 84.4 °F 65.8 °F 57% 29.88 in 10.0 mi NNW 4.6 mph - N/A   Clear
11:15 AM 83.7 °F 85.5 °F 65.7 °F 54% 29.88 in 10.0 mi NW 4.6 mph - N/A   Clear
11:35 AM 83.3 °F 84.6 °F 64.2 °F 52% 29.88 in 10.0 mi Calm Calm - N/A   Clear
11:55 AM 84.4 °F 86.1 °F 64.9 °F 52% 29.87 in 10.0 mi North 4.6 mph - N/A   Clear
12:15 PM 84.9 °F 85.9 °F 63.5 °F 48% 29.87 in 10.0 mi Calm Calm - N/A   Clear
12:35 PM 85.1 °F 86.1 °F 63.5 °F 48% 29.86 in 10.0 mi NNW 4.6 mph - N/A   Clear
12:55 PM 84.6 °F 85.6 °F 63.7 °F 49% 29.86 in 10.0 mi NNW 3.5 mph - N/A   Scattered Clouds
1:15 PM 85.6 °F 86.8 °F 63.7 °F 48% 29.86 in 10.0 mi Calm Calm - N/A   Scattered Clouds
1:35 PM 85.8 °F 86.8 °F 63.3 °F 47% 29.85 in 10.0 mi Calm Calm - N/A   Scattered Clouds
2:15 PM 87.1 °F 88.3 °F 64.2 °F 46% 29.85 in 10.0 mi Calm Calm - N/A   Clear
2:35 PM 87.1 °F 88.0 °F 63.3 °F 45% 29.84 in 10.0 mi South 4.6 mph - N/A   Clear
2:50 PM 87.8 °F 89.1 °F 64.2 °F 45% 29.83 in 10.0 mi Calm Calm - N/A   Clear
3:15 PM 88.9 °F 90.0 °F 64.0 °F 43% 29.83 in 10.0 mi Calm Calm - N/A   Clear
3:35 PM 88.2 °F 88.1 °F 61.3 °F 40% 29.81 in 10.0 mi WSW 3.5 mph - N/A   Clear
3:55 PM 88.9 °F 89.4 °F 62.6 °F 41% 29.81 in 10.0 mi Calm Calm - N/A   Clear
4:35 PM 88.3 °F 89.5 °F 63.9 °F 44% 29.80 in 10.0 mi Calm Calm - N/A   Clear
4:55 PM 86.5 °F 87.8 °F 63.9 °F 47% 29.80 in 10.0 mi Calm Calm - N/A   Clear
5:15 PM 86.4 °F 88.7 °F 66.0 °F 51% 29.80 in 10.0 mi Calm Calm - N/A   Clear
5:35 PM 86.5 °F 88.7 °F 65.7 °F 50% 29.79 in 10.0 mi Calm Calm - N/A   Scattered Clouds
5:55 PM 83.1 °F 86.8 °F 69.3 °F 63% 29.78 in 10.0 mi Calm Calm - N/A   Scattered Clouds
6:15 PM 82.8 °F 86.4 °F 69.4 °F 64% 29.78 in 10.0 mi Calm Calm - N/A   Clear
6:35 PM 83.8 °F 87.3 °F 68.5 °F 60% 29.78 in 10.0 mi Calm Calm - N/A   Clear
6:55 PM 83.7 °F 86.7 °F 68.0 °F 59% 29.78 in 10.0 mi Calm Calm - N/A   Scattered Clouds
7:15 PM 82.4 °F 85.8 °F 69.1 °F 64% 29.78 in 10.0 mi Calm Calm - N/A   Clear
7:35 PM 81.7 °F 85.1 °F 69.3 °F 66% 29.78 in 10.0 mi Calm Calm - N/A   Clear
7:55 PM 80.4 °F 83.5 °F 69.3 °F 69% 29.78 in 10.0 mi Calm Calm - N/A   Clear
8:15 PM 78.3 °F - 69.8 °F 75% 29.78 in 10.0 mi Calm Calm - N/A   Clear
8:35 PM 76.5 °F - 69.1 °F 78% 29.78 in 10.0 mi Calm Calm - N/A   Clear
8:55 PM 75.4 °F - 69.3 °F 81% 29.78 in 10.0 mi Calm Calm - N/A   Clear
9:15 PM 76.1 °F - 68.5 °F 77% 29.78 in 10.0 mi Calm Calm - N/A   Clear
9:35 PM 73.9 °F - 67.5 °F 80% 29.78 in 10.0 mi Calm Calm - N/A   Clear
9:55 PM 72.9 °F - 67.5 °F 83% 29.78 in 10.0 mi Calm Calm - N/A   Clear
10:35 PM 72.0 °F - 67.5 °F 86% 29.77 in 10.0 mi Calm Calm - N/A   Clear
10:55 PM 71.1 °F - 66.9 °F 87% 29.77 in 10.0 mi Calm Calm - N/A   Scattered Clouds
11:15 PM 71.2 °F - 67.3 °F 87% 29.77 in 10.0 mi Calm Calm - N/A   Scattered Clouds
11:35 PM 72.7 °F - 67.1 °F 83% 29.77 in 10.0 mi South 3.5 mph - N/A   Scattered Clouds
11:55 PM 72.9 °F - 66.7 °F 81% 29.77 in 10.0 mi South 4.6 mph - N/A   Clear